OpenBCM V1.13 (Linux)

Packet Radio Mailbox

DB0FHN

[JN59NK Nuernberg]

 Login: GUEST





  
LU5HK  > KEPLER   15.08.04 00:49l 750 Lines 20431 Bytes #999 (0) @ AMSAT
BID : 350057LU5HK
Read: GUEST
Subj: Kepler Amsat 12/08/2004
Path: DB0FHN<DB0MRW<OK0PKL<OK0PPL<DB0RES<ON0AR<7M3TJZ<SP7MGD<ON0BEL<KP4IG<
      LU4HB<LU4HB<LU3HE<LU2HT
Sent: 040814/0141Z @:LU2HT.5850.RT.ARG.SOAM #:39327 [RIO TERCERO] FBB7.00i
From: LU5HK@LU2HT.5850.RT.ARG.SOAM
To  : KEPLER@LUNET


<!DOCTYPE HTML PUBLIC "-//W3C//DTD HTML 4.0 Transitional//EN">
<!-- saved from url=(0049)http://amsat.org/amsat/ftp/keps/current/amsat.all -->
<HTML><HEAD>
<META http-equiv=Content-Type content="text/html; charset=iso-8859-1">
<META content="MSHTML 6.00.2600.0" name=GENERATOR></HEAD>
<BODY><PRE>SB KEPS @ AMSAT  $ORB04225.O
Orbital Elements  04225.OSCAR

HR AMSAT ORBITAL ELEMENTS FOR OSCAR SATELLITES
FROM WA5QGD FORT WORTH,TX August 12, 2004
SEND SUBSCRIBE/UNSUBSCRIBE TO majordomo@amsat.org ONLY
BID: ORB04225.O
TO ALL RADIO AMATEURS BT

Satellite: AO-07
Catalog number: 07530
Epoch time:      04225.70011990
Element set:     307
Inclination:      101.6792 deg
RA of node:       271.5447 deg
Eccentricity:    0.0012264
Arg of perigee:   111.8425 deg
Mean anomaly:     248.3952 deg
Mean motion:   12.53568910 rev/day
Decay rate:       -2.9e-07 rev/day^2
Epoch rev:           36099
Checksum:              288

Satellite: AO-10
Catalog number: 14129
Epoch time:      04222.07036874
Element set:      88
Inclination:       26.5380 deg
RA of node:        77.6641 deg
Eccentricity:    0.6023638
Arg of perigee:   114.1141 deg
Mean anomaly:     318.2309 deg
Mean motion:    2.05870254 rev/day
Decay rate:      -3.43e-06 rev/day^2
Epoch rev:           15910
Checksum:              271

Satellite: UO-11
Catalog number: 14781
Epoch time:      04225.66396608
Element set:     550
Inclination:       98.1767 deg
RA of node:       211.4542 deg
Eccentricity:    0.0007976
Arg of perigee:   271.1273 deg
Mean anomaly:      88.9019 deg
Mean motion:   14.78967373 rev/day
Decay rate:       3.59e-06 rev/day^2
Epoch rev:            9619
Checksum:              341

Satellite: RS-10/11
Catalog number: 18129
Epoch time:      04225.19997762
Element set:     485
Inclination:       82.9237 deg
RA of node:       106.7028 deg
Eccentricity:    0.0011845
Arg of perigee:   157.7181 deg
Mean anomaly:     202.4488 deg
Mean motion:   13.72742423 rev/day
Decay rate:        2.4e-07 rev/day^2
Epoch rev:           85868
Checksum:              323

Satellite: FO-20
Catalog number: 20480
Epoch time:      04224.65220900
Element set:    0696
Inclination:      099.0418 deg
RA of node:       091.6166 deg
Eccentricity:    0.0539793
Arg of perigee:   221.1689 deg
Mean anomaly:     134.7490 deg
Mean motion:   12.83341036 rev/day
Decay rate:       -5.0e-07 rev/day^2
Epoch rev:           67979
Checksum:              312

Satellite: RS-12/13
Catalog number: 21089
Epoch time:      04225.79873944
Element set:     716
Inclination:       82.9239 deg
RA of node:       139.7643 deg
Eccentricity:    0.0027772
Arg of perigee:   216.9532 deg
Mean anomaly:     142.9709 deg
Mean motion:   13.74439787 rev/day
Decay rate:        4.1e-07 rev/day^2
Epoch rev:           67813
Checksum:              350

Satellite: RS-15
Catalog number: 23439
Epoch time:      04224.16096230
Element set:     798
Inclination:       64.8154 deg
RA of node:       248.9291 deg
Eccentricity:    0.0153935
Arg of perigee:    11.4990 deg
Mean anomaly:     348.9385 deg
Mean motion:   11.27549517 rev/day
Decay rate:       -4.2e-07 rev/day^2
Epoch rev:           39643
Checksum:              328

Satellite: FO-29
Catalog number: 24278
Epoch time:      04224.85770182
Element set:     783
Inclination:       98.5865 deg
RA of node:       309.5322 deg
Eccentricity:    0.0349806
Arg of perigee:   257.4785 deg
Mean anomaly:      98.7019 deg
Mean motion:   13.52901478 rev/day
Decay rate:        1.0e-07 rev/day^2
Epoch rev:           39436
Checksum:              346

Satellite: SO-33
Catalog number: 25509
Epoch time:      04225.66269376
Element set:     172
Inclination:       31.4342 deg
RA of node:       336.3092 deg
Eccentricity:    0.0355832
Arg of perigee:   349.6395 deg
Mean anomaly:       9.7072 deg
Mean motion:   14.27858672 rev/day
Decay rate:       1.82e-06 rev/day^2
Epoch rev:           30269
Checksum:              319

Satellite: AO-40
Catalog number: 26609
Epoch time:      04224.39036627
Element set:     422
Inclination:        9.9769 deg
RA of node:       347.5420 deg
Eccentricity:    0.7973909
Arg of perigee:   310.1505 deg
Mean anomaly:       3.9814 deg
Mean motion:    1.25586933 rev/day
Decay rate:      -3.23e-06 rev/day^2
Epoch rev:            1736
Checksum:              310

>/EX
SB KEPS @ AMSAT  $ORB04225.D
Orbital Elements  04225.MICROS

HR AMSAT ORBITAL ELEMENTS FOR THE MICROSATS
FROM WA5QGD FORT WORTH,TX August 12, 2004
SEND SUBSCRIBE/UNSUBSCRIBE TO majordomo@amsat.org ONLY
BID: ORB04225.D
TO ALL RADIO AMATEURS BT

Satellite: UO-14
Catalog number: 20437
Epoch time:      04225.01483819
Element set:     565
Inclination:       98.2085 deg
RA of node:       245.8460 deg
Eccentricity:    0.0011540
Arg of perigee:    38.4013 deg
Mean anomaly:     321.8006 deg
Mean motion:   14.31365785 rev/day
Decay rate:        2.5e-07 rev/day^2
Epoch rev:           75980
Checksum:              285

Satellite: AO-16
Catalog number: 20439
Epoch time:      04225.14563630
Element set:     252
Inclination:       98.2439 deg
RA of node:       260.4566 deg
Eccentricity:    0.0011972
Arg of perigee:    44.3625 deg
Mean anomaly:     315.8525 deg
Mean motion:   14.31622943 rev/day
Decay rate:        1.5e-07 rev/day^2
Epoch rev:           75987
Checksum:              300

Satellite: WO-18
Catalog number: 20441
Epoch time:      04224.67723182
Element set:     437
Inclination:       98.2576 deg
RA of node:       264.0042 deg
Eccentricity:    0.0012713
Arg of perigee:    45.6571 deg
Mean anomaly:     314.5653 deg
Mean motion:   14.31699178 rev/day
Decay rate:        3.3e-07 rev/day^2
Epoch rev:           75986
Checksum:              307

Satellite: LO-19
Catalog number: 20442
Epoch time:      04225.71067526
Element set:     208
Inclination:       98.2714 deg
RA of node:       268.9984 deg
Eccentricity:    0.0012850
Arg of perigee:    42.6299 deg
Mean anomaly:     317.5880 deg
Mean motion:   14.31869260 rev/day
Decay rate:       -1.8e-07 rev/day^2
Epoch rev:           76007
Checksum:              317

Satellite: UO-22
Catalog number: 21575
Epoch time:      04225.64206347
Element set:     176
Inclination:       98.1964 deg
RA of node:       197.4135 deg
Eccentricity:    0.0006386
Arg of perigee:   304.1948 deg
Mean anomaly:      55.8621 deg
Mean motion:   14.39405055 rev/day
Decay rate:        7.0e-07 rev/day^2
Epoch rev:           68611
Checksum:              305

Satellite: KO-23
Catalog number: 22077
Epoch time:      04224.95986653
Element set:    0314
Inclination:      066.0828 deg
RA of node:       074.0478 deg
Eccentricity:    0.0007075
Arg of perigee:   328.9122 deg
Mean anomaly:     031.1475 deg
Mean motion:   12.86424822 rev/day
Decay rate:       -3.7e-07 rev/day^2
Epoch rev:           56381
Checksum:              305

Satellite: AO-27
Catalog number: 22825
Epoch time:      04225.71400252
Element set:     915
Inclination:       98.2422 deg
RA of node:       231.7485 deg
Eccentricity:    0.0009600
Arg of perigee:    96.7158 deg
Mean anomaly:     263.5102 deg
Mean motion:   14.29078791 rev/day
Decay rate:       -6.5e-07 rev/day^2
Epoch rev:           56716
Checksum:              300

Satellite: IO-26
Catalog number: 22826
Epoch time:      04225.02702577
Element set:     601
Inclination:       98.2428 deg
RA of node:       232.3777 deg
Eccentricity:    0.0009947
Arg of perigee:    95.1930 deg
Mean anomaly:     265.0388 deg
Mean motion:   14.29315339 rev/day
Decay rate:        3.9e-07 rev/day^2
Epoch rev:           56712
Checksum:              314

Satellite: KO-25
Catalog number: 22828
Epoch time:      04225.65259264
Element set:     850
Inclination:       98.2357 deg
RA of node:       233.2080 deg
Eccentricity:    0.0010945
Arg of perigee:    75.4961 deg
Mean anomaly:     284.7436 deg
Mean motion:   14.29636008 rev/day
Decay rate:       -3.5e-07 rev/day^2
Epoch rev:           53543
Checksum:              310

Satellite: TO-31
Catalog number: 25396
Epoch time:      04225.80282168
Element set:      57
Inclination:       98.5720 deg
RA of node:       295.6684 deg
Eccentricity:    0.0002653
Arg of perigee:    26.6612 deg
Mean anomaly:     333.4703 deg
Mean motion:   14.23628925 rev/day
Decay rate:       -4.3e-07 rev/day^2
Epoch rev:           31653
Checksum:              301

Satellite: GO-32
Catalog number: 25397
Epoch time:      04225.76000357
Element set:     535
Inclination:       98.5621 deg
RA of node:       293.7020 deg
Eccentricity:    0.0001580
Arg of perigee:    49.5190 deg
Mean anomaly:     310.6126 deg
Mean motion:   14.23047493 rev/day
Decay rate:      -1.08e-06 rev/day^2
Epoch rev:           31646
Checksum:              277

Satellite: UO-36
Catalog number: 25693
Epoch time:      04225.82255860
Element set:     347
Inclination:       64.5584 deg
RA of node:       150.6326 deg
Eccentricity:    0.0048103
Arg of perigee:   251.6412 deg
Mean anomaly:     107.9433 deg
Mean motion:   14.78368716 rev/day
Decay rate:        2.0e-08 rev/day^2
Epoch rev:           28623
Checksum:              302

Satellite: SO-41
Catalog number: 26545
Epoch time:      04224.90090289
Element set:     848
Inclination:       64.5576 deg
RA of node:       169.9949 deg
Eccentricity:    0.0014305
Arg of perigee:     6.9242 deg
Mean anomaly:     353.2105 deg
Mean motion:   14.79824684 rev/day
Decay rate:       1.97e-06 rev/day^2
Epoch rev:           20915
Checksum:              328

